User: anonymous   Login
Location: Bagnara
(41.0500°N, 14.7833°E)
Time: 23:06:07
(UTC+00:00)
Language:

Cosmos 1812 - Orbit

View from above orbital plane
View from above orbital plane
View from above satellite
View from above satellite

Ground track
Ground track

The orbit data is extracted from the following two-line orbital elements,

1 17295U 87003A   21262.41175448  .00000559  00000-0  27361-4 0  9991
2 17295  82.5136  53.0765 0004437 126.3784 233.7859 15.16160454894210
Epoch (UTC): 19 September 2021 09:52:55
Eccentricity: 0.0004437
inclination: 82.5136°
perigee height: 514 km
apogee height: 520 km
right ascension of ascending node: 53.0765°
argument of perigee: 126.3784°
revolutions per day: 15.16160454
mean anomaly at epoch: 233.7859°
orbit number at epoch: 89421

The dashed part of the orbit path shows where the satellite is in the earth's shadow,  

DLR